Dewpoint
24 24 25 26 31 31 36 39 41 46 49 53 51 52 55 54 55 55 56 56 56 56 60 62 62 62 63 67 67 67 68 68 69 69 68 69 70 71 69 68 69 68 69 70
21 22 25 29 31 31 34 36 40 44 48 48 51 49 50 53 53 55 54 55 55 56 59 61 62 61 63 63 66 67 68 68 69 69 68 70 70 70 72 71 70 70 70 70
18 22 25 28 27 30 29 33 38 40 49 49 48 46 50 52 51 51 55 56 56 56 58 60 61 60 62 65 66 67 69 69 69 70 71 72 72 72 71 71 71 72 72 71
17 20 21 21 21 26 24 32 34 42 42 39 44 37 42 50 50 50 53 56 56 56 57 61 62 61 60 64 68 68 71 69 70 70 68 69 69 68 70 69 71 72 73 73
8 22 21 21 21 26 23 29 30 39 40 43 46 40 42 47 45 48 52 52 58 57 57 62 62 63 62 64 68 69 71 71 71 68 67 65 68 69 70 69 68 70 70 70
7 12 18 16 20 21 23 23 29 33 36 31 35 40 35 45 46 49 51 53 54 58 57 61 62 64 59 63 66 66 69 70 71 69 65 65 66 67 67 67 67 68 67 66
4 3 5 11 6 13 18 15 12 19 25 27 32 38 37 39 48 49 50 53 57 56 58 61 62 64 61 62 64 65 65 67 70 69 67 68 68 67 67 66 67 65 64 63
1 -0 2 6 5 6 7 11 14 15 21 22 37 34 33 47 48 51 52 54 55 55 58 61 62 64 64 62 63 64 66 68 69 69 68 67 68 68 67 66 66 63 62 62
3 3 6 8 9 8 12 22 18 20 23 23 33 37 38 47 49 50 50 52 54 54 60 61 63 64 64 64 66 68 69 68 69 67 68 69 66 64 62 62 62 61 62 62
3 0 3 2 5 8 4 9 12 12 17 17 19 35 34 38 45 49 51 51 54 54 60 62 62 63 63 65 71 71 69 69 69 69 68 65 63 62 61 61 61 62 61 60
3 4 1 8 2 1 1 13 17 12 17 13 12 21 38 38 41 45 48 51 51 55 56 62 62 63 64 69 71 70 69 69 69 68 66 63 62 61 61 61 61 60 59 58
9 3 1 1 4 3 3 1 5 8 7 15 14 13 18 39 41 47 49 47 52 55 59 60 64 68 69 70 70 70 69 69 68 66 63 61 60 60 60 60 59 58 57 56
24 4 1 2 2 3 4 8 18 11 12 13 10 13 36 48 45 49 48 46 53 59 59 65 69 69 69 69 69 69 68 68 66 63 61 59 60 59 59 58 57 54 50 46
33 7 3 2 3 6 7 8 11 11 10 11 11 12 27 46 46 48 49 55 57 59 61 67 68 69 68 68 68 67 66 65 62 60 59 59 58 58 58 57 53 49 48 46
28 16 14 18 10 11 8 7 10 8 8 9 10 13 18 41 47 47 49 60 59 60 65 66 67 68 68 67 66 66 64 62 60 59 58 58 58 57 56 54 52 48 44 43
33 31 28 31 14 13 8 10 11 11 10 10 14 25 33 45 48 50 53 61 60 63 65 65 67 67 67 66 65 64 62 59 59 58 57 57 57 55 53 53 52 46 44 42
33 33 32 30 27 17 10 8 10 13 30 18 23 24 25 43 47 48 53 61 61 63 65 65 66 67 67 66 64 62 60 59 58 57 57 56 55 53 52 53 52 51 50 49
31 35 32 30 27 18 13 24 19 40 46 47 46 46 50 45 46 47 51 60 62 63 65 66 66 66 66 65 64 62 59 58 57 56 56 56 54 52 52 52 51 51 51 51
35 41 33 31 29 27 29 41 41 41 42 48 48 49 50 52 46 46 56 62 62 63 66 66 66 66 65 63 63 61 60 57 57 56 56 55 53 52 52 51 51 50 50 50
42 45 41 34 28 25 33 43 46 45 38 48 50 51 52 54 42 42 52 61 64 66 66 66 65 64 63 62 62 61 59 57 57 56 56 54 53 53 52 51 51 51 51 51
37 35 33 36 32 32 44 46 48 42 43 49 51 52 54 55 50 56 59 64 66 66 65 65 64 63 62 62 62 59 58 57 57 57 55 53 53 53 52 51 51 51 52 52
40 41 37 36 31 29 46 45 43 48 50 51 52 54 55 59 57 57 64 65 65 65 65 64 63 62 62 62 61 59 58 57 57 57 55 53 53 53 52 52 52 52 52 51
43 45 44 43 41 46 48 50 53 53 52 52 53 54 57 61 62 63 64 65 64 64 64 64 63 62 62 61 59 58 57 57 57 56 55 53 53 54 53 52 52 51 51 52
42 51 47 45 46 48 48 52 54 54 54 53 53 54 60 61 64 64 64 64 64 65 64 64 63 62 60 58 58 58 57 56 56 56 55 53 53 53 52 52 52 52 52 52
35 50 46 46 48 49 48 51 51 53 53 54 52 51 59 61 60 62 62 62 63 65 64 62 61 60 59 58 57 57 56 55 55 55 55 53 53 52 52 52 53 53 53 52
44 35 42 40 45 47 48 50 53 54 54 53 52 49 57 60 59 60 62 62 62 61 61 60 60 59 58 59 59 59 57 54 54 54 53 53 52 52 53 52 52 50 49 48
Lifted_Index
4 4 3 2 2 2 1 1 0 -1 -1 -2 -2 -1 -2 -2 -2 -2 -2 -2 -2 -2 -2 -2 -3 -3 -3 -2 -2 -2 -2 -3 -2 -3 -3 -3 -3 -3 -4 -3 -2 -2 -3 -3
4 3 3 2 1 1 1 1 0 -1 -1 -2 -2 -1 -1 -2 -2 -2 -2 -2 -2 -2 -2 -2 -3 -3 -2 -2 -2 -2 -2 -2 -2 -3 -3 -3 -3 -3 -4 -3 -3 -3 -4 -4
4 3 2 1 1 1 1 1 1 -1 -1 -1 -1 -1 -1 -1 -2 -2 -2 -3 -3 -2 -2 -2 -2 -2 -2 -2 -2 -2 -2 -3 -3 -3 -3 -3 -3 -3 -3 -3 -4 -4 -4 -4
4 3 2 1 1 1 1 1 1 -0 -1 -1 -0 -0 -0 -1 -1 -1 -2 -2 -3 -3 -2 -2 -2 -2 -2 -2 -2 -2 -3 -3 -3 -3 -3 -3 -2 -2 -2 -2 -3 -3 -4 -4
4 3 3 2 1 1 1 1 1 -0 -1 -1 -0 -0 -0 -0 -0 -0 -1 -2 -3 -3 -2 -2 -2 -2 -2 -2 -2 -3 -3 -3 -3 -3 -3 -2 -2 -1 -1 -1 -1 -2 -3 -3
4 4 3 3 2 2 1 1 0 -0 -1 -1 -0 -0 -0 -0 0 0 -0 -2 -2 -2 -3 -2 -2 -2 -2 -2 -2 -3 -3 -4 -4 -4 -3 -2 -2 -1 -1 -1 -1 -1 -2 -2
4 4 4 3 2 2 1 1 0 -0 -1 -1 -0 -0 -0 0 0 1 0 -1 -1 -2 -2 -3 -2 -2 -2 -2 -2 -3 -3 -4 -4 -4 -4 -3 -2 -2 -1 -1 -1 -1 -1 -1
2 3 3 3 3 2 1 1 0 -0 -1 -1 -1 -0 0 0 0 1 0 -0 -1 -1 -2 -2 -2 -2 -2 -2 -2 -2 -3 -3 -4 -4 -4 -3 -2 -2 -1 -1 -1 -1 -1 -1
2 2 3 3 3 2 2 1 0 -0 -1 -1 -1 -0 0 0 0 1 1 0 -0 -0 -1 -2 -2 -2 -2 -2 -3 -3 -3 -3 -4 -4 -4 -3 -3 -2 -2 -1 -1 -1 -1 -0
3 3 3 3 3 2 2 1 0 -0 -0 -1 -0 -0 0 -0 0 0 1 0 0 0 -1 -2 -2 -2 -3 -3 -3 -4 -4 -4 -4 -4 -4 -3 -3 -2 -2 -1 -1 -1 -0 0
3 3 3 3 2 2 2 1 0 0 -0 -0 -0 -0 0 0 0 0 0 0 0 0 -0 -2 -2 -3 -3 -4 -4 -5 -5 -5 -5 -4 -4 -3 -3 -2 -1 -1 0 1 2 3
3 3 3 3 3 2 1 1 0 0 -0 -0 -0 -0 0 0 -0 0 0 0 0 -0 -1 -2 -3 -4 -4 -5 -5 -6 -6 -6 -5 -4 -3 -2 -2 -1 -0 1 2 4 6 7
3 2 2 2 2 2 1 1 1 0 0 -0 -0 -0 -0 -0 -0 0 0 0 -0 -1 -1 -3 -4 -5 -5 -5 -5 -6 -6 -6 -5 -3 -2 -1 -1 0 1 3 5 7 8 9
2 2 2 2 2 2 1 1 1 1 0 -0 -0 -0 -0 -0 -0 -0 -0 -1 -1 -1 -2 -4 -5 -5 -5 -5 -6 -6 -6 -6 -4 -3 -2 -1 0 1 2 5 7 8 10 11
1 1 1 2 2 2 1 1 1 1 0 0 -0 -0 -0 -0 0 -0 -1 -2 -2 -3 -3 -4 -4 -5 -5 -5 -6 -6 -6 -5 -4 -3 -1 -0 1 2 4 6 9 11 12 13
1 1 1 2 2 2 2 1 1 1 1 0 0 0 -0 0 0 0 -1 -3 -3 -4 -4 -4 -4 -5 -5 -6 -6 -6 -6 -5 -4 -3 -1 -0 1 3 5 8 10 13 14 15
1 1 1 1 1 2 1 1 1 1 0 0 0 -0 -0 0 0 0 -1 -3 -4 -4 -4 -4 -5 -5 -5 -6 -6 -6 -6 -5 -4 -2 -1 0 2 4 6 9 11 13 14 14
1 1 1 1 1 1 1 1 1 0 0 -0 -0 -0 -0 0 0 0 -1 -3 -4 -5 -5 -5 -5 -5 -6 -6 -6 -5 -5 -4 -3 -2 -1 0 2 5 8 10 11 12 12 12
0 1 1 1 1 1 1 1 0 -0 -0 -0 -0 -1 -1 -1 0 1 -1 -3 -5 -5 -5 -6 -6 -6 -6 -5 -4 -4 -4 -3 -2 -1 -0 1 3 6 9 11 11 11 11 11
-0 -0 -0 0 0 1 1 1 -0 -1 -1 -0 -0 -1 -1 -1 -1 -0 -1 -3 -5 -5 -5 -6 -6 -6 -5 -5 -4 -3 -3 -3 -2 -1 -0 2 5 8 10 11 11 10 10 10
-1 -1 -1 -0 0 0 1 0 -1 -1 -1 -1 -1 -1 -2 -2 -2 -2 -2 -3 -4 -5 -5 -6 -6 -6 -5 -4 -4 -3 -3 -3 -2 -1 0 3 6 9 10 10 10 9 9 9
-2 -1 -1 -1 -0 -0 0 -0 -1 -1 -1 -1 -1 -2 -3 -3 -3 -3 -3 -4 -4 -5 -5 -6 -6 -6 -5 -4 -3 -3 -3 -3 -2 -1 1 4 7 8 9 9 9 9 8 8
-1 -1 -1 -1 -1 -1 -0 -0 -1 -1 -1 -1 -1 -2 -3 -3 -3 -4 -4 -4 -5 -5 -6 -6 -6 -5 -4 -4 -3 -4 -3 -3 -2 -0 2 5 7 8 8 8 8 8 8 8
-0 -1 -1 -1 -1 -1 -1 -1 -1 -1 -0 -0 -1 -2 -3 -4 -4 -4 -5 -5 -5 -6 -6 -6 -5 -4 -4 -3 -4 -4 -3 -3 -1 1 3 5 7 7 7 8 8 8 8 7
1 1 0 0 -0 -1 -1 -1 -1 -1 -1 -0 -0 -1 -3 -4 -5 -5 -5 -5 -5 -5 -5 -4 -3 -3 -3 -4 -4 -4 -3 -2 -0 2 4 5 6 7 7 7 7 7 7 7
3 3 2 2 1 -0 -1 -1 -1 -1 -1 -1 -0 -1 -2 -4 -5 -5 -5 -5 -5 -4 -4 -3 -2 -3 -3 -4 -4 -4 -3 -2 0 2 4 5 6 7 7 7 7 7 7 7